Location: Hartford
(41.7640°N, 72.6860°W)
Time: 13:58:48
(UTC-04:00)

ISS - Visible Passes

Search period start: 31 May 2016 00:00
Search period end: 10 June 2016 00:00
Orbit: 402 x 404 km, 51.6° (Epoch: 31 May)

Date Brightness Start Highest point End Pass type
(mag) Time Alt. Az. Time Alt. Az. Time Alt. Az.
31 May -0.2 00:27:52 10° NNW 00:30:00 16° N 00:32:07 10° NE visible
31 May -1.6 02:03:56 10° NW 02:06:00 30° NNW 02:06:00 30° NNW visible
31 May -0.5 21:57:00 10° WNW 21:59:34 21° NNW 22:02:09 10° NE visible
31 May -0.1 23:34:58 10° NNW 23:36:55 15° N 23:38:51 10° NE visible
01 Jun -1.1 01:11:16 10° NW 01:13:34 26° N 01:13:34 26° N visible
01 Jun -1.1 21:03:42 10° W 21:06:35 28° NNW 21:09:29 10° NE visible
01 Jun -0.2 22:41:52 10° NW 22:43:49 15° N 22:45:46 10° NNE visible
02 Jun -0.8 00:18:37 10° NW 00:21:11 21° NNE 00:21:52 19° NE visible
02 Jun -0.3 21:48:34 10° NW 21:50:43 16° N 21:52:52 10° NNE visible
02 Jun -0.4 23:25:54 10° NNW 23:28:07 17° N 23:30:20 10° NE visible
03 Jun -0.7 01:01:57 10° NW 01:02:58 18° NW 01:02:58 18° NW visible
03 Jun -0.5 20:55:11 10° WNW 20:57:38 19° NNW 21:00:07 10° NNE visible
03 Jun -0.3 22:33:02 10° NNW 22:35:01 15° N 22:36:59 10° NE visible
04 Jun -1.3 00:09:14 10° NW 00:11:38 29° N 00:11:38 29° N visible
04 Jun -0.4 21:39:57 10° NW 21:41:52 15° N 21:43:48 10° NE visible
04 Jun -1.1 23:16:33 10° NW 23:19:12 22° NNE 23:20:20 19° NE visible
05 Jun -0.4 00:52:40 10° WNW 00:52:56 12° WNW 00:52:56 12° WNW visible
05 Jun -0.6 22:23:48 10° NNW 22:26:07 18° NNE 22:28:26 10° ENE visible
05 Jun -1.5 23:59:50 10° NW 00:01:42 30° NW 00:01:42 30° NW visible
06 Jun -0.5 21:30:57 10° NNW 21:32:59 15° N 21:35:01 10° NE visible
06 Jun -2.0 23:07:05 10° NW 23:10:08 35° NNE 23:10:30 34° NE visible
07 Jun -1.3 22:14:22 10° NW 22:17:06 24° NNE 22:19:20 13° ENE visible
07 Jun -1.2 23:50:31 10° WNW 23:51:55 23° WNW 23:51:55 23° WNW visible
08 Jun -0.9 21:21:35 10° NNW 21:24:00 19° NNE 21:26:24 10° ENE visible
08 Jun -3.2 22:57:37 10° NW 23:00:47 69° NNE 23:00:47 69° NNE visible
09 Jun -2.3 22:04:49 10° NW 22:07:56 40° NNE 22:09:41 21° E visible
09 Jun -0.8 23:41:29 10° WNW 23:42:16 15° W 23:42:16 15° W visible
